SCP
0 0 1 1 2 2 4 5 5 4 4 4 3 2 2 1 1 0 0 0 0 0 0 0 0 0 0 0 0 0 0 0 0 0 0 0 0 0 0 0 0 0 0
0 0 0 1 2 2 4 6 5 4 4 4 3 3 2 1 1 0 0 0 0 0 0 0 0 0 0 0 0 0 0 0 0 0 0 0 0 0 0 0 0 0 0
0 0 0 1 1 2 3 4 5 4 3 4 4 3 3 2 1 1 0 0 0 0 0 0 0 0 0 0 0 0 0 0 0 0 0 0 0 0 0 0 0 0 0
0 0 0 1 1 2 3 3 3 3 3 3 4 4 3 2 2 1 1 0 0 0 0 0 0 0 0 0 0 0 0 0 0 0 0 0 0 0 0 0 0 0 0
0 0 0 0 1 2 3 3 3 3 3 3 4 4 4 3 2 2 1 1 0 0 0 0 0 0 0 0 0 0 0 0 0 0 0 0 0 0 0 0 0 0 0
0 0 0 0 1 1 3 3 3 3 3 3 4 4 4 4 3 2 2 1 1 0 0 0 0 0 0 0 0 0 0 0 0 0 0 0 0 0 0 0 0 0 0
0 0 0 0 1 1 2 3 3 2 2 3 3 4 4 4 3 3 2 1 1 1 0 0 0 0 0 0 0 0 0 0 0 0 0 0 0 0 0 0 0 0 0
0 0 0 0 0 1 2 3 3 2 2 2 3 3 4 4 3 3 2 2 1 1 1 0 0 0 0 0 0 0 0 0 0 0 0 0 0 0 0 0 0 0 0
0 0 0 0 0 1 2 3 3 2 2 2 2 2 3 3 3 3 3 2 2 1 1 0 0 0 0 0 0 0 0 0 0 0 0 0 0 0 0 0 0 0 0
0 0 0 0 0 1 2 3 3 3 2 2 2 2 2 2 2 2 2 2 2 2 1 1 0 0 0 0 0 0 0 0 0 0 0 0 0 0 0 0 0 0 0
0 0 0 0 0 1 1 2 3 3 2 2 2 2 2 2 1 1 2 2 2 2 2 1 1 0 0 0 0 0 0 0 0 0 0 0 0 0 0 0 0 0 0
0 0 0 0 0 0 1 2 2 2 2 2 2 2 2 2 2 1 1 1 2 2 2 2 1 1 0 0 0 0 0 0 0 0 0 0 0 0 0 0 0 0 0
0 0 0 0 0 0 1 1 2 2 2 2 2 2 2 2 2 1 1 1 1 2 2 2 1 1 1 0 0 0 0 0 0 0 0 0 0 0 0 0 0 0 0
0 0 0 0 0 0 0 1 1 2 2 2 2 2 2 1 1 1 1 1 1 1 2 2 2 1 1 1 0 0 0 0 0 0 0 0 0 0 0 0 0 0 0
0 0 0 0 0 0 0 1 1 2 2 2 2 2 2 2 2 1 1 1 1 1 1 1 2 2 1 1 0 0 0 0 0 0 0 0 0 0 0 0 0 0 0
0 0 0 0 0 0 0 1 1 1 2 2 2 1 2 2 2 2 1 1 1 1 1 1 1 1 1 1 0 0 0 0 0 0 0 0 0 0 0 0 0 0 0
0 0 0 0 0 0 0 0 1 1 1 1 1 1 1 2 2 2 1 1 1 1 1 1 0 1 1 0 0 0 1 1 0 0 0 0 0 0 0 0 0 0 0
0 0 0 0 0 0 0 0 0 1 1 1 1 1 1 1 1 1 1 1 1 1 1 1 0 0 0 0 0 0 1 1 1 0 0 0 0 0 0 0 0 0 0
0 0 0 0 0 0 0 0 0 0 0 1 1 1 1 1 1 1 1 1 1 1 1 1 0 0 0 0 0 0 1 1 1 1 0 0 0 0 0 0 0 0 0
0 0 0 0 0 0 0 0 0 0 0 0 1 1 1 1 1 1 1 1 1 1 1 1 1 0 0 0 0 0 1 1 1 0 0 0 0 0 0 0 0 0 0
0 0 0 0 0 0 0 0 0 0 0 0 0 1 1 1 1 1 1 1 0 0 1 1 1 1 0 0 0 0 1 1 1 0 0 0 0 0 0 0 0 0 0
0 0 0 0 0 0 0 0 0 0 0 0 0 1 1 1 1 1 1 1 0 0 0 0 1 1 0 0 0 0 0 0 0 0 0 0 0 0 0 0 0 0 0
0 0 0 0 0 0 0 0 0 0 0 0 0 1 1 1 1 0 0 0 0 0 0 0 0 0 0 0 0 0 0 0 0 0 0 0 0 0 0 0 0 0 0
0 0 0 0 0 0 0 0 0 0 0 0 0 0 1 1 1 0 0 0 0 0 0 0 0 0 0 0 0 0 0 0 0 0 0 0 0 0 0 0 0 0 0
0 0 0 0 0 0 0 0 0 0 0 0 0 0 0 0 0 0 0 0 0 0 0 0 0 0 0 0 0 0 0 0 0 0 0 0 0 0 0 0 0 0 0
0 0 0 0 0 0 0 0 0 0 0 0 0 0 0 0 0 0 0 0 0 0 0 0 0 0 0 0 0 0 0 0 0 0 0 0 0 0 0 0 0 0 0
Wind_Speed
14 13 15 16 17 17 18 20 19 19 16 14 13 13 12 11 10 9 11 12 11 12 10 7 8 8 7 7 7 4 4 3 3 3 2 2 2 0 1 2 2 3 3
12 13 14 15 19 20 21 21 21 21 20 15 13 11 9 8 8 7 10 12 12 12 11 10 9 8 7 7 7 5 4 3 3 4 3 0 3 2 1 2 3 3 2
15 14 14 16 18 20 22 21 22 22 21 16 11 8 7 6 6 9 10 12 13 13 11 11 10 9 9 8 8 7 7 5 3 3 5 4 4 2 2 2 2 3 3
14 13 14 16 18 20 21 22 23 22 22 19 16 18 15 13 13 12 10 10 12 13 12 12 11 10 8 9 9 7 5 7 4 2 2 3 4 3 1 2 2 3 4
13 13 14 16 17 19 20 20 21 22 21 20 20 19 15 11 7 8 10 10 10 12 12 12 11 11 9 10 10 8 7 6 5 4 3 2 1 2 3 2 2 2 3
12 12 12 12 14 16 17 18 20 21 21 22 21 21 19 14 12 12 13 11 9 9 12 13 12 11 10 10 10 10 10 7 6 5 4 4 4 4 3 3 3 3 3
11 11 11 11 13 14 16 18 20 21 21 22 22 22 21 19 18 16 15 12 10 10 14 13 13 11 10 10 9 10 10 9 8 7 5 4 4 4 4 3 2 2 2
10 11 12 12 14 16 17 19 20 20 22 22 22 20 20 16 14 15 13 14 12 12 12 13 12 12 12 11 10 9 9 9 9 9 7 5 4 4 4 4 4 2 2
10 11 11 12 14 16 18 19 21 19 21 22 21 19 18 17 15 15 13 12 10 9 11 12 12 11 12 12 11 9 10 9 9 9 8 6 5 4 4 3 4 4 3
10 11 11 12 12 14 16 18 19 20 19 20 19 16 18 17 15 14 15 13 12 11 12 13 12 11 12 12 11 8 9 10 9 7 8 7 4 4 4 3 3 3 4
8 9 9 10 11 11 14 16 17 17 17 18 18 17 17 16 14 14 15 14 13 13 13 14 13 13 12 12 11 10 10 11 9 8 9 9 6 5 4 3 3 3 3
7 7 7 8 9 11 12 15 15 15 16 17 16 16 16 15 15 15 14 14 14 13 13 13 13 13 13 12 12 12 11 11 11 10 9 8 5 6 4 4 4 4 3
6 5 5 6 8 11 12 13 14 15 14 14 15 15 14 16 16 15 14 14 14 13 13 13 14 13 13 12 12 11 10 10 10 10 9 8 7 7 4 4 4 3 2
6 5 3 4 7 8 11 12 13 13 12 12 14 15 15 15 16 15 14 14 14 13 14 13 13 12 12 11 10 10 9 9 8 8 8 8 8 8 6 5 4 3 3
9 6 4 3 4 6 8 10 11 11 12 12 14 14 13 12 12 12 13 13 13 13 12 11 11 10 10 10 11 10 9 9 8 6 6 6 7 8 6 5 5 5 3
11 9 6 4 3 4 6 7 9 10 11 12 12 12 12 12 12 12 12 12 12 12 12 12 11 11 8 13 15 12 9 9 8 7 5 5 6 7 7 7 7 7 5
13 11 8 5 4 4 5 7 8 8 10 10 10 11 13 13 12 11 12 12 12 12 12 11 11 11 11 15 16 15 10 8 8 7 6 5 5 6 5 6 6 4 4
13 11 9 6 4 2 3 5 7 9 10 10 10 11 12 12 12 12 12 11 10 11 11 11 11 10 10 16 16 15 9 7 7 7 7 7 6 6 7 6 5 3 2
12 10 8 6 3 2 3 5 6 8 9 10 11 11 12 12 12 13 12 10 10 9 9 10 11 10 10 15 17 15 8 7 7 6 7 7 7 10 11 8 6 4 2
11 9 7 5 1 1 3 6 7 9 10 10 10 10 11 12 12 12 11 9 9 9 9 8 9 10 10 14 17 16 8 8 7 6 6 8 9 11 11 7 6 5 3
11 9 7 5 2 0 3 5 6 7 7 8 9 10 10 11 11 10 10 11 10 10 10 9 8 8 10 14 17 16 9 9 8 6 5 5 11 11 11 8 5 6 6
11 9 6 6 3 1 3 5 5 5 7 8 9 10 10 9 10 12 11 11 12 12 11 10 8 6 7 11 14 16 14 12 9 7 5 6 12 11 10 7 8 10 8
10 8 6 5 4 2 2 5 5 7 9 9 10 10 10 9 10 12 12 11 10 10 9 9 8 7 6 8 15 17 17 15 9 7 12 12 14 11 8 10 11 8 5
8 7 6 4 4 3 1 4 6 8 9 10 10 10 10 10 9 8 9 10 10 10 10 10 9 8 7 7 7 8 10 14 11 9 12 15 14 10 10 8 6 4 3
7 6 5 4 4 3 1 4 7 8 9 10 10 10 9 10 9 7 6 8 7 10 12 10 11 12 9 10 15 12 9 8 9 10 7 6 5 5 4 4 4 3 3
7 6 6 4 4 2 1 4 7 9 10 10 10 9 8 8 8 9 8 10 9 13 14 14 13 10 13 19 19 18 19 19 20 11 7 6 5 5 4 4 3 2 2
Wind_Direction
221 215 204 195 190 186 183 182 180 177 175 177 178 179 183 182 182 182 179 178 177 175 173 173 172 173 173 172 159 144 145 139 131 99 58 3 359 283 211 191 189 202 202
224 217 208 199 192 189 187 185 183 180 182 184 183 181 175 176 177 176 180 182 179 178 179 174 177 176 169 168 165 148 144 153 154 131 117 23 326 305 264 226 211 212 205
221 217 207 202 196 192 189 188 186 184 185 181 171 158 150 150 170 183 187 187 183 182 181 179 177 178 177 179 177 166 158 163 184 160 148 158 212 261 299 255 233 219 216
223 217 207 198 197 195 191 189 188 186 185 179 177 175 179 184 189 185 185 183 184 184 182 180 180 180 182 180 181 175 164 157 173 191 177 158 154 157 248 299 271 239 229
222 218 212 202 199 196 191 189 187 188 186 183 182 183 188 190 172 169 175 182 185 186 184 182 183 184 186 185 182 176 175 169 168 171 163 147 126 138 154 237 280 282 250
220 220 215 204 199 195 191 189 187 189 187 186 186 188 189 180 172 177 183 186 187 188 189 186 188 188 188 187 185 183 182 183 176 176 169 163 167 182 171 196 229 249 266
215 216 211 204 199 194 193 190 189 189 187 188 190 192 191 186 186 186 188 186 187 193 195 190 191 190 189 186 182 184 189 186 185 187 190 189 187 166 163 168 196 232 272
219 216 212 205 201 195 192 191 191 191 189 190 193 194 192 190 193 190 189 191 196 197 190 191 193 191 187 186 185 188 191 191 195 196 193 196 200 180 171 167 161 190 279
227 221 214 207 202 197 194 193 193 192 191 192 192 193 193 193 193 190 188 193 193 187 184 190 191 190 188 188 186 193 193 191 198 199 198 201 201 191 187 171 165 168 212
235 229 218 209 204 199 195 194 194 194 191 191 192 194 194 195 193 188 191 192 190 183 184 189 191 189 189 189 189 190 190 193 197 193 197 204 201 195 188 183 180 178 185
246 234 224 210 201 196 193 192 194 194 192 192 192 191 193 193 190 191 193 192 187 185 187 189 190 191 192 190 192 194 189 195 195 192 197 205 196 192 193 183 181 188 180
266 242 225 206 193 192 192 191 192 194 194 191 190 191 191 189 191 193 191 188 188 188 187 186 189 192 193 192 194 195 193 195 196 195 195 202 190 193 190 186 192 196 189
301 271 228 206 198 195 192 192 191 193 192 189 187 187 187 189 191 192 188 186 186 186 185 186 190 191 191 192 194 192 192 193 194 193 196 197 186 196 192 188 193 192 179
325 308 263 225 204 199 194 190 190 188 185 185 186 186 189 190 190 186 185 184 183 184 186 188 188 187 186 187 187 185 185 186 188 189 192 191 190 194 188 188 191 175 168
330 319 292 256 221 201 193 189 187 183 180 182 186 187 186 184 181 180 180 180 181 183 181 179 179 179 181 184 181 179 179 179 179 179 182 183 181 182 181 179 178 168 169
326 316 310 289 238 210 196 184 181 180 177 180 183 178 174 175 176 176 174 174 175 174 171 174 175 177 182 179 175 173 174 173 174 172 167 163 167 164 161 161 160 160 167
324 318 309 292 254 221 197 185 178 171 173 175 172 169 171 172 173 169 167 169 170 168 169 171 172 176 176 170 168 167 166 167 170 166 158 148 146 144 141 135 126 130 136
323 318 313 301 280 235 199 176 167 166 167 167 167 166 165 166 165 164 167 166 164 165 167 168 168 164 165 162 159 155 154 152 155 156 155 151 149 147 141 131 123 114 109
315 309 305 296 276 214 175 156 161 162 161 165 166 165 162 160 160 163 163 159 155 155 159 161 158 156 158 157 153 148 144 139 138 139 141 145 147 146 140 135 131 117 88
319 319 320 323 310 210 153 150 159 162 166 166 164 160 158 158 159 157 151 146 145 145 144 144 150 152 153 152 148 143 140 137 132 125 132 140 141 143 141 143 144 145 144
322 327 328 336 314 224 142 148 155 165 160 150 149 149 150 150 147 142 140 140 137 135 135 133 134 141 146 147 147 146 145 144 139 137 137 137 137 136 138 136 142 142 132
326 330 334 337 329 298 151 146 151 141 135 138 140 140 140 139 139 139 139 139 138 135 133 129 125 122 133 141 146 145 142 140 139 140 136 131 132 131 130 124 118 116 111
323 326 329 333 335 327 163 154 150 139 135 136 138 136 135 137 142 144 143 142 141 139 139 137 134 127 124 132 138 139 137 133 126 128 131 127 125 120 116 114 114 112 108
321 324 325 330 330 324 286 154 144 140 137 139 139 138 137 137 139 141 145 147 148 144 143 143 140 135 132 132 133 134 129 125 117 115 118 115 111 103 102 103 98 92 112
313 318 313 305 307 312 265 146 143 138 136 138 138 135 136 139 136 130 134 143 150 155 152 152 149 148 149 154 146 142 139 136 129 120 107 103 107 101 97 93 91 88 93
308 309 305 298 304 309 217 151 146 142 140 142 141 139 139 136 132 125 103 85 114 128 133 139 139 136 139 142 141 138 135 134 133 122 124 126 126 128 128 125 113 101 104